SCP
0 0 0 0 0 0 0 0 0 0 0 0 0 0 0 0 0 0 0 0 0 0 0 0 0 0 0 0 0 0 0 0 0 0 0 0 0 0 0 0 0 0 0 0 0
0 0 0 0 0 0 0 0 0 0 0 0 0 0 0 0 0 0 0 0 0 0 0 0 0 0 0 0 0 0 0 0 0 0 0 0 0 0 0 0 0 0 0 0 0
0 0 0 0 0 0 0 0 0 0 0 0 0 0 0 0 0 0 0 0 0 0 0 0 0 0 0 0 0 0 0 0 0 0 0 0 0 0 0 0 0 0 0 0 0
0 0 0 0 0 0 0 0 0 0 0 0 0 0 0 0 0 0 0 0 0 0 0 0 0 0 0 0 0 0 0 0 0 0 0 0 0 0 0 0 0 0 0 0 0
0 0 0 0 0 0 0 0 0 0 -0 0 0 0 0 0 0 0 0 0 0 0 0 0 0 0 0 0 0 0 0 0 0 0 0 0 0 0 0 0 0 0 0 0 0
0 0 0 0 0 0 -0 -0 -0 -0 -0 -0 -0 0 0 0 0 0 0 0 0 0 0 0 0 0 0 0 0 0 0 0 0 0 0 0 0 0 0 0 0 0 0 0 0
0 0 0 0 0 0 0 -0 -0 -0 -0 -0 -0 0 -0 0 -0 -0 0 0 0 0 0 0 0 0 0 0 0 0 0 0 0 0 0 0 0 0 0 0 0 0 0 0 0
0 0 0 0 0 0 -0 -0 -0 -0 -0 -0 0 -0 -0 -0 -0 -0 0 0 0 0 0 0 0 0 0 0 0 0 0 0 0 0 0 0 -0 0 0 0 0 0 0 0 0
0 0 0 0 0 -0 -0 -0 -0 -0 0 0 0 -0 0 -0 0 -0 -0 0 0 0 0 0 0 0 0 0 0 0 0 0 0 0 0 0 0 0 0 0 0 0 0 0 0
0 0 0 0 0 -0 -0 -0 0 0 0 0 0 0 0 0 -0 -0 -0 -0 0 0 0 0 0 0 0 0 0 0 0 0 0 0 0 0 0 0 0 0 0 0 0 0 0
0 0 0 0 0 -0 0 0 0 0 0 0 0 0 -0 -0 -0 -0 -0 -0 -0 0 0 0 0 0 0 0 0 0 0 0 0 0 0 0 0 0 0 0 0 0 0 0 0
0 0 0 0 0 0 0 0 0 0 0 0 0 -0 -0 0 -0 -0 -0 -0 -0 0 0 0 0 0 0 0 0 0 0 0 0 0 0 0 0 0 0 0 0 0 0 0 0
0 0 0 0 0 0 0 0 0 0 0 0 0 -0 -0 0 -0 -0 -0 -0 -0 -0 0 0 0 0 0 0 0 0 0 0 0 0 0 0 0 0 0 0 0 0 0 0 0
0 0 0 0 0 0 0 0 0 0 0 0 0 0 0 0 -0 -0 -0 -0 0 -0 0 -0 0 0 0 0 0 0 0 0 0 0 0 0 0 0 0 0 0 0 0 0 0
0 0 0 0 0 0 0 0 0 0 0 0 0 0 0 -0 -0 0 0 0 -0 -0 0 0 0 0 0 0 0 0 0 0 0 0 0 0 0 0 0 0 0 0 0 0 0
0 0 0 0 0 0 0 0 0 0 0 0 0 0 0 0 0 0 0 0 0 0 0 -0 0 -0 0 -0 -0 -0 0 0 0 0 0 0 0 0 0 0 0 0 0 0 0
0 0 0 0 0 0 0 0 0 0 0 0 0 0 0 0 0 0 0 0 0 0 0 0 0 0 -0 -0 -0 -0 0 0 0 0 0 0 0 0 0 0 0 -0 0 0 0
0 0 0 0 0 0 0 0 0 0 0 0 0 0 0 0 0 0 0 0 0 0 0 0 0 -0 0 0 0 0 0 0 0 0 0 0 0 0 0 0 0 0 0 0 0
0 0 0 0 0 0 0 0 0 0 0 0 0 0 0 0 0 0 0 0 0 0 0 -0 -0 0 0 0 0 0 0 0 -0 -0 0 0 0 0 0 0 0 0 0 0 0
0 0 0 0 0 0 0 0 0 0 0 0 0 0 0 0 0 0 0 0 0 0 0 0 0 0 -0 -0 0 0 0 0 0 0 0 0 0 0 0 0 0 0 0 0 0
0 0 0 0 0 0 0 0 0 0 0 0 0 0 0 0 0 0 0 0 0 0 0 0 0 0 -0 -0 -0 -0 -0 0 -0 0 0 0 0 0 0 0 -0 0 0 0 0
0 0 0 0 0 0 0 0 0 0 0 0 0 0 0 0 0 0 0 0 0 0 0 -0 -0 -0 -0 -0 -0 0 -0 -0 -0 -0 0 0 -0 -0 -0 -0 -0 0 0 0 0
0 0 0 0 0 0 0 0 0 0 0 0 0 0 0 0 0 0 0 0 0 0 -0 -0 -0 -0 -0 -0 -0 0 0 0 -0 -0 -0 -0 -0 -0 -0 0 0 0 0 0 0
0 0 0 0 0 0 0 0 0 0 0 0 0 0 0 0 0 0 0 0 0 -0 -0 -0 -0 -0 -0 -0 -0 -0 -0 0 -0 0 -0 -0 -0 -0 0 0 0 0 0 0 0
0 0 0 0 0 0 0 0 0 0 0 0 0 0 0 0 0 0 0 0 0 0 -0 -0 0 -0 -0 -0 -0 -0 -0 0 -0 -0 0 -0 -0 -0 -0 0 0 0 0 0 0
0 0 0 0 0 0 0 0 0 0 0 0 0 0 0 0 0 0 0 0 0 -0 -0 -0 -0 -0 -0 -0 -0 0 0 0 0 0 -0 -0 -0 0 -0 0 0 0 0 0 0
0 0 0 0 0 0 0 0 0 0 0 0 0 0 0 0 0 0 0 0 0 0 -0 -0 -0 -0 -0 -0 -0 0 -0 -0 -0 -0 -0 0 0 0 0 0 0 0 0 0 0
Wind_Speed_500mb
15 17 17 17 21 23 25 29 29 29 29 31 33 33 31 30 22 9 11 15 22 31 29 33 29 22 15 9 13 12 16 25 34 30 22 7 11 6 10 15 16 20 8 12 45
14 15 16 17 19 22 24 27 29 29 30 31 33 35 36 23 14 23 19 15 20 24 24 20 14 18 13 10 12 26 25 40 25 30 20 11 11 12 9 18 19 18 27 18 51
13 14 15 16 18 22 23 24 27 31 34 32 31 33 33 18 7 15 20 22 23 21 22 20 14 8 17 20 22 15 33 33 31 30 19 12 12 11 18 16 33 36 33 39 60
12 14 15 16 18 20 23 23 26 29 33 34 34 33 29 15 3 15 23 28 27 18 17 14 6 7 14 23 27 26 28 37 42 30 19 20 12 11 24 41 24 23 33 44 67
13 14 14 15 16 18 21 23 24 26 29 31 33 35 32 11 11 21 27 30 26 23 14 15 7 6 15 13 26 34 34 34 41 46 48 50 43 38 30 38 38 30 23 52 62
17 17 17 16 16 17 20 23 24 26 29 30 31 33 22 9 20 22 28 31 31 24 16 11 6 11 15 18 24 21 28 30 38 48 46 37 45 43 35 40 34 35 36 49 59
20 19 17 17 18 18 20 24 26 26 28 26 25 24 17 13 22 29 30 25 23 28 21 13 10 7 11 16 22 28 36 37 43 32 31 39 54 56 43 37 25 32 36 46 55
21 17 16 16 18 18 20 25 26 25 20 18 20 18 5 25 35 32 30 23 16 20 23 16 13 14 12 20 24 16 25 34 25 45 38 26 53 41 57 46 44 38 36 44 57
14 11 11 11 15 18 21 25 25 14 14 15 17 8 6 20 39 30 24 25 24 18 19 19 13 14 14 17 22 23 31 35 29 36 29 48 46 35 44 41 48 47 42 45 49
8 7 6 8 14 17 22 24 13 3 17 9 18 4 18 29 30 27 22 20 19 23 10 5 5 10 12 17 21 21 29 33 41 28 19 49 52 42 42 58 56 48 46 47 52
7 4 4 7 13 17 17 9 7 4 18 9 9 5 20 41 33 17 28 19 9 6 12 6 9 19 26 29 35 36 38 42 37 27 26 28 31 28 42 51 58 64 52 50 56
9 6 2 6 10 14 17 9 12 5 3 7 10 7 20 33 18 17 29 11 9 13 12 6 23 22 16 28 33 35 37 38 31 38 42 41 51 35 33 38 55 58 60 54 48
11 9 3 2 6 12 15 14 11 16 2 5 6 8 18 31 12 17 17 11 9 8 6 12 28 33 15 22 32 37 38 36 26 29 41 32 50 46 35 57 59 68 64 60 61
12 9 5 1 4 10 9 10 10 11 2 15 5 3 19 26 7 16 7 9 6 13 11 21 9 15 21 32 29 33 33 34 36 22 20 17 39 49 44 45 51 67 76 66 56
13 10 6 3 3 5 4 7 10 3 2 15 11 14 34 7 19 1 26 7 18 22 6 14 25 27 34 32 18 22 27 30 32 31 26 33 22 31 39 49 48 50 80 81 64
14 12 7 3 3 4 5 9 5 2 1 7 10 20 21 6 9 17 9 13 16 14 13 41 33 25 21 24 21 20 17 24 30 25 26 40 30 41 34 49 48 47 69 71 63
16 12 8 2 1 3 6 6 1 3 6 10 9 16 19 12 14 9 14 18 11 13 18 33 13 9 16 14 19 22 15 9 11 14 23 31 31 50 34 50 55 50 65 68 62
20 14 8 3 3 3 8 3 4 2 7 5 8 19 8 18 6 17 16 13 6 9 21 17 15 7 10 12 12 16 11 10 16 18 25 17 13 16 6 24 44 53 74 93 91
22 16 10 4 1 3 3 5 3 9 3 6 7 6 8 7 10 14 10 6 6 10 14 13 16 18 18 7 4 6 13 9 13 30 22 20 22 20 7 10 21 43 57 71 81
26 17 11 7 2 1 6 2 4 7 5 3 4 3 8 12 15 13 8 5 5 4 19 9 21 13 5 7 27 11 6 9 8 13 23 17 15 19 22 32 29 31 50 55 66
25 10 11 10 5 2 3 4 7 13 7 4 1 4 8 8 5 7 10 10 3 15 22 21 12 15 21 10 21 7 9 9 8 14 10 13 8 3 19 26 33 20 34 52 61
22 4 14 15 2 4 4 9 7 8 8 6 6 9 7 5 10 8 10 8 7 14 18 7 9 12 37 25 5 7 19 10 10 8 10 4 5 11 18 24 23 9 7 40 59
19 9 13 17 5 3 1 6 7 9 8 7 9 15 7 7 9 12 12 15 27 14 11 13 7 14 12 5 8 12 10 15 21 12 8 6 5 11 15 10 7 20 23 31 56
17 5 7 10 7 11 9 7 4 9 6 8 7 6 6 11 15 12 15 16 25 19 17 13 8 16 21 30 30 22 34 34 8 10 14 7 13 24 26 18 13 14 31 34 42
17 8 12 7 8 8 6 12 7 7 11 10 6 16 11 9 12 11 9 26 18 3 25 10 11 13 27 37 29 31 26 26 6 13 9 11 14 24 25 15 10 14 26 36 39
20 14 12 8 15 15 4 11 14 6 12 10 13 4 18 14 15 17 18 16 15 13 24 11 7 14 15 12 23 14 21 28 17 13 11 16 9 15 33 16 14 14 22 25 33
33 26 17 15 10 7 8 10 15 16 14 12 14 6 17 30 33 38 32 31 35 23 18 9 11 9 9 26 30 2 25 20 11 26 15 10 10 20 23 25 26 15 17 22 27
Wind_Direction_500mb
34 25 24 27 22 15 12 10 13 13 7 1 358 1 1 2 13 61 32 341 332 312 294 279 276 288 302 266 221 206 229 231 224 214 225 185 202 195 234 228 201 203 213 225 183
37 29 31 26 16 11 8 8 8 9 5 359 356 356 358 5 61 54 40 358 343 330 321 311 298 291 251 233 218 216 230 235 234 226 226 205 244 228 192 217 235 218 221 207 182
35 26 23 19 12 9 6 3 2 2 0 356 355 359 357 11 96 33 2 343 333 339 343 331 318 279 242 236 220 222 241 241 242 231 221 235 244 223 227 221 231 230 207 192 184
15 4 5 1 359 3 3 360 358 357 355 351 351 2 2 9 42 352 349 350 349 327 339 348 337 248 242 231 229 249 242 252 244 239 237 231 243 231 239 245 223 240 212 204 191
339 333 335 336 345 351 354 357 355 352 349 348 348 358 8 49 34 350 358 357 354 349 333 0 346 284 253 270 259 249 253 254 252 252 252 259 251 258 251 258 251 258 226 215 205
315 317 321 323 327 333 344 349 347 346 343 344 346 358 22 76 10 9 360 357 359 4 351 355 2 302 276 272 267 304 286 276 259 254 252 253 252 244 246 262 247 248 230 209 208
299 300 307 317 323 326 337 339 339 338 335 337 346 5 56 39 8 347 337 339 345 349 344 333 318 311 319 280 268 280 277 276 254 257 248 259 255 242 246 246 240 236 221 209 205
290 292 296 305 321 331 336 332 332 330 334 343 349 360 90 11 358 352 333 325 327 336 325 331 299 288 258 280 288 274 268 256 248 244 242 225 257 241 236 241 244 237 222 212 209
288 287 295 312 330 339 338 330 328 345 354 360 15 47 64 2 359 3 349 341 326 333 324 299 289 270 269 266 273 241 256 249 248 244 242 222 258 248 236 231 239 239 223 217 211
292 270 292 325 340 345 342 333 347 80 11 44 23 54 8 346 358 4 358 340 330 329 353 354 222 263 254 240 244 256 257 253 251 261 279 253 250 251 251 232 234 238 230 219 215
256 252 279 337 347 353 2 354 4 17 41 42 22 19 334 348 354 18 3 336 346 343 343 5 283 258 267 259 267 275 273 271 274 281 302 279 286 294 262 238 236 237 230 223 221
219 205 239 341 355 2 16 62 55 4 357 23 19 4 344 343 322 7 2 358 339 319 319 289 275 296 275 265 261 260 264 270 288 265 269 277 276 261 268 273 254 238 231 222 219
188 181 198 347 7 10 26 48 27 13 31 344 357 330 333 325 311 327 358 333 301 307 298 257 269 302 278 269 253 248 249 260 251 294 282 283 273 265 249 252 251 252 243 228 214
179 175 176 42 33 4 27 25 7 9 82 354 359 349 335 319 259 322 9 321 280 299 312 275 281 274 277 262 261 269 253 255 256 268 262 237 267 254 244 247 237 236 238 233 217
174 173 161 102 27 18 13 15 345 22 26 348 319 328 338 3 323 255 333 300 281 286 276 283 295 297 283 273 255 255 264 261 257 248 287 272 265 264 246 245 247 232 226 225 220
178 166 163 128 17 30 21 353 341 255 343 351 316 350 346 330 336 310 335 310 282 295 256 265 275 282 263 272 261 271 288 272 257 249 253 260 248 272 248 249 240 234 220 219 210
181 172 170 158 89 38 350 343 324 90 359 337 335 337 333 320 328 335 332 352 349 321 325 321 288 254 236 260 237 250 269 279 235 219 256 255 253 247 251 240 232 218 208 210 207
182 172 177 158 86 32 344 55 78 61 256 328 313 320 334 356 303 323 328 351 32 349 306 335 325 214 175 248 262 207 214 252 291 245 272 196 247 252 255 292 277 262 215 201 197
180 173 179 174 144 353 354 59 187 196 193 300 318 5 339 341 327 337 318 307 330 19 7 308 278 299 269 224 193 135 209 257 266 259 273 256 246 283 328 320 313 281 247 204 187
179 173 189 191 185 294 72 152 193 211 218 51 28 22 319 318 332 341 310 215 295 29 345 281 292 291 326 240 224 225 345 271 211 248 234 231 240 243 337 316 312 323 232 192 181
173 173 191 180 164 99 106 203 210 225 206 168 229 265 245 297 256 278 265 274 160 336 325 285 249 298 297 234 293 213 248 218 259 244 257 270 238 46 295 292 284 302 209 164 163
171 166 181 171 70 44 142 191 168 193 198 226 245 257 269 261 273 270 267 255 325 344 314 306 290 282 287 315 303 286 275 238 259 334 250 306 284 20 320 305 260 105 101 143 154
167 151 174 178 181 158 255 247 204 193 198 197 225 218 214 280 292 229 268 271 311 339 322 344 290 296 295 180 197 301 267 245 276 249 247 257 1 348 335 322 359 107 108 120 143
160 146 150 187 160 135 170 206 207 213 230 221 242 199 221 266 233 274 289 301 326 327 313 299 256 284 300 301 302 297 307 297 259 282 321 9 300 330 353 359 22 86 113 115 125
174 186 164 168 211 165 166 162 162 203 212 223 238 217 194 273 284 243 274 306 301 9 349 338 267 279 288 284 282 308 306 312 313 304 335 326 328 353 343 353 360 92 112 122 130
176 162 134 104 141 139 197 207 197 210 195 219 228 209 205 239 231 290 304 304 284 307 338 335 275 314 287 251 299 308 355 357 351 347 342 311 360 351 353 17 57 83 102 110 128
198 166 149 151 152 163 209 193 209 183 223 227 220 244 248 257 268 272 272 268 272 297 308 295 321 312 273 324 318 82 357 352 344 10 319 342 333 337 356 10 21 70 94 117 132
Wind_Speed_850mb
15 17 17 17 21 23 25 29 29 29 29 31 33 33 31 30 22 9 11 15 22 31 29 33 29 22 15 9 13 12 16 25 34 30 22 7 11 6 10 15 16 20 8 12 45
14 15 16 17 19 22 24 27 29 29 30 31 33 35 36 23 14 23 19 15 20 24 24 20 14 18 13 10 12 26 25 40 25 30 20 11 11 12 9 18 19 18 27 18 51
13 14 15 16 18 22 23 24 27 31 34 32 31 33 33 18 7 15 20 22 23 21 22 20 14 8 17 20 22 15 33 33 31 30 19 12 12 11 18 16 33 36 33 39 60
12 14 15 16 18 20 23 23 26 29 33 34 34 33 29 15 3 15 23 28 27 18 17 14 6 7 14 23 27 26 28 37 42 30 19 20 12 11 24 41 24 23 33 44 67
13 14 14 15 16 18 21 23 24 26 29 31 33 35 32 11 11 21 27 30 26 23 14 15 7 6 15 13 26 34 34 34 41 46 48 50 43 38 30 38 38 30 23 52 62
17 17 17 16 16 17 20 23 24 26 29 30 31 33 22 9 20 22 28 31 31 24 16 11 6 11 15 18 24 21 28 30 38 48 46 37 45 43 35 40 34 35 36 49 59
20 19 17 17 18 18 20 24 26 26 28 26 25 24 17 13 22 29 30 25 23 28 21 13 10 7 11 16 22 28 36 37 43 32 31 39 54 56 43 37 25 32 36 46 55
21 17 16 16 18 18 20 25 26 25 20 18 20 18 5 25 35 32 30 23 16 20 23 16 13 14 12 20 24 16 25 34 25 45 38 26 53 41 57 46 44 38 36 44 57
14 11 11 11 15 18 21 25 25 14 14 15 17 8 6 20 39 30 24 25 24 18 19 19 13 14 14 17 22 23 31 35 29 36 29 48 46 35 44 41 48 47 42 45 49
8 7 6 8 14 17 22 24 13 3 17 9 18 4 18 29 30 27 22 20 19 23 10 5 5 10 12 17 21 21 29 33 41 28 19 49 52 42 42 58 56 48 46 47 52
7 4 4 7 13 17 17 9 7 4 18 9 9 5 20 41 33 17 28 19 9 6 12 6 9 19 26 29 35 36 38 42 37 27 26 28 31 28 42 51 58 64 52 50 56
9 6 2 6 10 14 17 9 12 5 3 7 10 7 20 33 18 17 29 11 9 13 12 6 23 22 16 28 33 35 37 38 31 38 42 41 51 35 33 38 55 58 60 54 48
11 9 3 2 6 12 15 14 11 16 2 5 6 8 18 31 12 17 17 11 9 8 6 12 28 33 15 22 32 37 38 36 26 29 41 32 50 46 35 57 59 68 64 60 61
12 9 5 1 4 10 9 10 10 11 2 15 5 3 19 26 7 16 7 9 6 13 11 21 9 15 21 32 29 33 33 34 36 22 20 17 39 49 44 45 51 67 76 66 56
13 10 6 3 3 5 4 7 10 3 2 15 11 14 34 7 19 1 26 7 18 22 6 14 25 27 34 32 18 22 27 30 32 31 26 33 22 31 39 49 48 50 80 81 64
14 12 7 3 3 4 5 9 5 2 1 7 10 20 21 6 9 17 9 13 16 14 13 41 33 25 21 24 21 20 17 24 30 25 26 40 30 41 34 49 48 47 69 71 63
16 12 8 2 1 3 6 6 1 3 6 10 9 16 19 12 14 9 14 18 11 13 18 33 13 9 16 14 19 22 15 9 11 14 23 31 31 50 34 50 55 50 65 68 62
20 14 8 3 3 3 8 3 4 2 7 5 8 19 8 18 6 17 16 13 6 9 21 17 15 7 10 12 12 16 11 10 16 18 25 17 13 16 6 24 44 53 74 93 91
22 16 10 4 1 3 3 5 3 9 3 6 7 6 8 7 10 14 10 6 6 10 14 13 16 18 18 7 4 6 13 9 13 30 22 20 22 20 7 10 21 43 57 71 81
26 17 11 7 2 1 6 2 4 7 5 3 4 3 8 12 15 13 8 5 5 4 19 9 21 13 5 7 27 11 6 9 8 13 23 17 15 19 22 32 29 31 50 55 66
25 10 11 10 5 2 3 4 7 13 7 4 1 4 8 8 5 7 10 10 3 15 22 21 12 15 21 10 21 7 9 9 8 14 10 13 8 3 19 26 33 20 34 52 61
22 4 14 15 2 4 4 9 7 8 8 6 6 9 7 5 10 8 10 8 7 14 18 7 9 12 37 25 5 7 19 10 10 8 10 4 5 11 18 24 23 9 7 40 59
19 9 13 17 5 3 1 6 7 9 8 7 9 15 7 7 9 12 12 15 27 14 11 13 7 14 12 5 8 12 10 15 21 12 8 6 5 11 15 10 7 20 23 31 56
17 5 7 10 7 11 9 7 4 9 6 8 7 6 6 11 15 12 15 16 25 19 17 13 8 16 21 30 30 22 34 34 8 10 14 7 13 24 26 18 13 14 31 34 42
17 8 12 7 8 8 6 12 7 7 11 10 6 16 11 9 12 11 9 26 18 3 25 10 11 13 27 37 29 31 26 26 6 13 9 11 14 24 25 15 10 14 26 36 39
20 14 12 8 15 15 4 11 14 6 12 10 13 4 18 14 15 17 18 16 15 13 24 11 7 14 15 12 23 14 21 28 17 13 11 16 9 15 33 16 14 14 22 25 33
33 26 17 15 10 7 8 10 15 16 14 12 14 6 17 30 33 38 32 31 35 23 18 9 11 9 9 26 30 2 25 20 11 26 15 10 10 20 23 25 26 15 17 22 27
Wind_Direction_850mb
34 25 24 27 22 15 12 10 13 13 7 1 358 1 1 2 13 61 32 341 332 312 294 279 276 288 302 266 221 206 229 231 224 214 225 185 202 195 234 228 201 203 213 225 183
37 29 31 26 16 11 8 8 8 9 5 359 356 356 358 5 61 54 40 358 343 330 321 311 298 291 251 233 218 216 230 235 234 226 226 205 244 228 192 217 235 218 221 207 182
35 26 23 19 12 9 6 3 2 2 0 356 355 359 357 11 96 33 2 343 333 339 343 331 318 279 242 236 220 222 241 241 242 231 221 235 244 223 227 221 231 230 207 192 184
15 4 5 1 359 3 3 360 358 357 355 351 351 2 2 9 42 352 349 350 349 327 339 348 337 248 242 231 229 249 242 252 244 239 237 231 243 231 239 245 223 240 212 204 191
339 333 335 336 345 351 354 357 355 352 349 348 348 358 8 49 34 350 358 357 354 349 333 0 346 284 253 270 259 249 253 254 252 252 252 259 251 258 251 258 251 258 226 215 205
315 317 321 323 327 333 344 349 347 346 343 344 346 358 22 76 10 9 360 357 359 4 351 355 2 302 276 272 267 304 286 276 259 254 252 253 252 244 246 262 247 248 230 209 208
299 300 307 317 323 326 337 339 339 338 335 337 346 5 56 39 8 347 337 339 345 349 344 333 318 311 319 280 268 280 277 276 254 257 248 259 255 242 246 246 240 236 221 209 205
290 292 296 305 321 331 336 332 332 330 334 343 349 360 90 11 358 352 333 325 327 336 325 331 299 288 258 280 288 274 268 256 248 244 242 225 257 241 236 241 244 237 222 212 209
288 287 295 312 330 339 338 330 328 345 354 360 15 47 64 2 359 3 349 341 326 333 324 299 289 270 269 266 273 241 256 249 248 244 242 222 258 248 236 231 239 239 223 217 211
292 270 292 325 340 345 342 333 347 80 11 44 23 54 8 346 358 4 358 340 330 329 353 354 222 263 254 240 244 256 257 253 251 261 279 253 250 251 251 232 234 238 230 219 215
256 252 279 337 347 353 2 354 4 17 41 42 22 19 334 348 354 18 3 336 346 343 343 5 283 258 267 259 267 275 273 271 274 281 302 279 286 294 262 238 236 237 230 223 221
219 205 239 341 355 2 16 62 55 4 357 23 19 4 344 343 322 7 2 358 339 319 319 289 275 296 275 265 261 260 264 270 288 265 269 277 276 261 268 273 254 238 231 222 219
188 181 198 347 7 10 26 48 27 13 31 344 357 330 333 325 311 327 358 333 301 307 298 257 269 302 278 269 253 248 249 260 251 294 282 283 273 265 249 252 251 252 243 228 214
179 175 176 42 33 4 27 25 7 9 82 354 359 349 335 319 259 322 9 321 280 299 312 275 281 274 277 262 261 269 253 255 256 268 262 237 267 254 244 247 237 236 238 233 217
174 173 161 102 27 18 13 15 345 22 26 348 319 328 338 3 323 255 333 300 281 286 276 283 295 297 283 273 255 255 264 261 257 248 287 272 265 264 246 245 247 232 226 225 220
178 166 163 128 17 30 21 353 341 255 343 351 316 350 346 330 336 310 335 310 282 295 256 265 275 282 263 272 261 271 288 272 257 249 253 260 248 272 248 249 240 234 220 219 210
181 172 170 158 89 38 350 343 324 90 359 337 335 337 333 320 328 335 332 352 349 321 325 321 288 254 236 260 237 250 269 279 235 219 256 255 253 247 251 240 232 218 208 210 207
182 172 177 158 86 32 344 55 78 61 256 328 313 320 334 356 303 323 328 351 32 349 306 335 325 214 175 248 262 207 214 252 291 245 272 196 247 252 255 292 277 262 215 201 197
180 173 179 174 144 353 354 59 187 196 193 300 318 5 339 341 327 337 318 307 330 19 7 308 278 299 269 224 193 135 209 257 266 259 273 256 246 283 328 320 313 281 247 204 187
179 173 189 191 185 294 72 152 193 211 218 51 28 22 319 318 332 341 310 215 295 29 345 281 292 291 326 240 224 225 345 271 211 248 234 231 240 243 337 316 312 323 232 192 181
173 173 191 180 164 99 106 203 210 225 206 168 229 265 245 297 256 278 265 274 160 336 325 285 249 298 297 234 293 213 248 218 259 244 257 270 238 46 295 292 284 302 209 164 163
171 166 181 171 70 44 142 191 168 193 198 226 245 257 269 261 273 270 267 255 325 344 314 306 290 282 287 315 303 286 275 238 259 334 250 306 284 20 320 305 260 105 101 143 154
167 151 174 178 181 158 255 247 204 193 198 197 225 218 214 280 292 229 268 271 311 339 322 344 290 296 295 180 197 301 267 245 276 249 247 257 1 348 335 322 359 107 108 120 143
160 146 150 187 160 135 170 206 207 213 230 221 242 199 221 266 233 274 289 301 326 327 313 299 256 284 300 301 302 297 307 297 259 282 321 9 300 330 353 359 22 86 113 115 125
174 186 164 168 211 165 166 162 162 203 212 223 238 217 194 273 284 243 274 306 301 9 349 338 267 279 288 284 282 308 306 312 313 304 335 326 328 353 343 353 360 92 112 122 130
176 162 134 104 141 139 197 207 197 210 195 219 228 209 205 239 231 290 304 304 284 307 338 335 275 314 287 251 299 308 355 357 351 347 342 311 360 351 353 17 57 83 102 110 128
198 166 149 151 152 163 209 193 209 183 223 227 220 244 248 257 268 272 272 268 272 297 308 295 321 312 273 324 318 82 357 352 344 10 319 342 333 337 356 10 21 70 94 117 132